DW3838 Weather Reports


Display with metric or nautical units.
time (UTC)temp
F
wind
direction
speed
MPH
gust
MPH
rain 1hr
in
rain 24hr
in
rain mn
in
humidity
%
barometer
mb
20260504041528 50 200 0.0 3.0 0.00 0.00 0.00 86 1014.1
20260504040031 50 182 0.0 0.0 0.00 0.00 0.00 86 1014.1
20260504034536 51 182 0.0 0.0 0.00 0.00 0.00 86 1014.0
20260504033035 53 182 0.0 0.0 0.00 0.00 0.00 85 1013.9
20260504031524 54 182 0.0 0.0 0.00 0.00 0.00 84 1013.7
20260504000042 61 200 4.0 11.0 0.00 0.00 0.00 71 1013.3
20260503234538 62 173 3.0 10.0 0.00 0.00 0.00 71 1013.1
20260503233035 61 169 3.0 9.0 0.00 0.00 0.00 73 1013.1
20260503231533 61 186 4.0 9.0 0.00 0.00 0.00 70 1013.0
20260503230032 61 171 3.0 7.0 0.00 0.00 0.00 71 1012.8
20260503224532 62 209 2.0 8.0 0.00 0.00 0.00 69 1012.9
20260503223031 60 190 4.0 10.0 0.00 0.00 0.00 70 1012.9
20260503221537 60 200 3.0 10.0 0.00 0.00 0.00 69 1013.1
20260503220030 60 123 3.0 10.0 0.00 0.00 0.00 69 1013.2
20260503214528 61 184 3.0 9.0 0.00 0.00 0.00 69 1013.2
20260503213032 60 161 0.0 8.0 0.00 0.00 0.00 70 1012.9
20260503211526 61 142 3.0 5.0 0.00 0.00 0.00 73 1013.0
20260503210025 60 184 2.0 6.0 0.00 0.00 0.00 72 1013.0
20260503204526 60 224 1.0 5.0 0.00 0.00 0.00 70 1013.0
20260503203020 59 217 0.0 0.0 0.00 0.00 0.00 74 1013.1
20260503201526 59 211 1.0 6.0 0.00 0.00 0.00 77 1013.2
20260503200014 58 192 0.0 5.0 0.00 0.00 0.00 77 1013.3
20260503194513 58 177 0.0 6.0 0.00 0.00 0.00 76 1013.4
20260503193013 58 161 0.0 3.0 0.00 0.00 0.00 75 1013.5
20260503191514 57 209 0.0 2.0 0.00 0.00 0.00 73 1013.5
20260503190017 57 196 0.0 0.0 0.00 0.00 0.00 79 1013.4
20260503184509 56 196 0.0 5.0 0.00 0.00 0.00 79 1013.5
20260503183014 57 206 0.0 5.0 0.00 0.00 0.00 78 1013.5
20260503181516 57 220 1.0 7.0 0.00 0.00 0.00 78 1013.5
20260503180005 56 183 0.0 4.0 0.00 0.00 0.00 78 1013.5
20260503174501 56 317 0.0 5.0 0.00 0.00 0.00 80 1013.4
20260503173103 55 160 0.0 2.0 0.00 0.00 0.00 81 1013.3
20260503171556 55 322 0.0 0.0 0.00 0.00 0.00 83 1013.2
20260503081515 49 216 0.0 0.0 0.00 0.00 0.00 87 1011.8
20260503071506 50 216 0.0 0.0 0.00 0.00 0.00 86 1011.9
20260503054602 51 216 0.0 0.0 0.00 0.00 0.00 86 1012.3
20260503053100 51 216 0.0 0.0 0.00 0.00 0.00 86 1012.3
20260503051601 52 216 0.0 0.0 0.00 0.00 0.00 86 1012.4
20260503050059 52 216 0.0 0.0 0.00 0.00 0.00 86 1012.4
20260503044626 52 216 0.0 0.0 0.00 0.00 0.00 86 1012.3
20260503043058 52 216 0.0 0.0 0.00 0.00 0.00 86 1012.3